| time (UTC) | temp F | wind direction | speed MPH | gust MPH | rain 1hr in | rain 24hr in | rain mn in | humidity % | barometer mb |
| 20260502224042 | 69 | 228 | 1.0 | 3.0 | 0.00 | 0.00 | 0.00 | 62 | 1012.5 |
| 20260502223542 | 68 | 253 | 1.0 | 3.0 | 0.00 | 0.00 | 0.00 | 65 | 1012.6 |
| 20260502223042 | 68 | 58 | 1.0 | 3.0 | 0.00 | 0.00 | 0.00 | 61 | 1012.8 |
| 20260502222540 | 67 | 41 | 1.0 | 3.0 | 0.00 | 0.00 | 0.00 | 62 | 1012.8 |
| 20260502222040 | 67 | 355 | 2.0 | 5.0 | 0.00 | 0.00 | 0.00 | 61 | 1012.9 |
| 20260502221540 | 67 | 12 | 1.0 | 5.0 | 0.00 | 0.00 | 0.00 | 64 | 1012.9 |
| 20260502221040 | 67 | 286 | 1.0 | 3.0 | 0.00 | 0.00 | 0.00 | 66 | 1012.9 |
| 20260502220540 | 66 | 164 | 1.0 | 3.0 | 0.00 | 0.00 | 0.00 | 64 | 1013.1 |
| 20260502220039 | 66 | 172 | 1.0 | 3.0 | 0.00 | 0.00 | 0.00 | 66 | 1013.2 |
| 20260502215540 | 65 | 296 | 1.0 | 3.0 | 0.00 | 0.00 | 0.00 | 66 | 1013.2 |
| 20260502215041 | 65 | 174 | 1.0 | 3.0 | 0.00 | 0.00 | 0.00 | 67 | 1013.3 |
| 20260502214540 | 65 | 171 | 1.0 | 3.0 | 0.00 | 0.00 | 0.00 | 65 | 1013.3 |
| 20260502214040 | 64 | 263 | 2.0 | 3.0 | 0.00 | 0.00 | 0.00 | 65 | 1013.3 |
| 20260502213537 | 64 | 355 | 2.0 | 4.0 | 0.00 | 0.00 | 0.00 | 66 | 1013.3 |
| 20260502213039 | 64 | 222 | 1.0 | 5.0 | 0.00 | 0.00 | 0.00 | 70 | 1013.5 |
| 20260502212537 | 64 | 156 | 1.0 | 5.0 | 0.00 | 0.00 | 0.00 | 66 | 1013.5 |
| 20260502212036 | 64 | 152 | 1.0 | 4.0 | 0.00 | 0.00 | 0.00 | 67 | 1013.6 |
| 20260502211536 | 63 | 159 | 1.0 | 4.0 | 0.00 | 0.00 | 0.00 | 69 | 1013.7 |
| 20260502211038 | 62 | 174 | 1.0 | 5.0 | 0.00 | 0.00 | 0.00 | 69 | 1013.8 |
| 20260502211034 | 63 | 189 | 1.0 | 5.0 | 0.00 | 0.00 | 0.00 | 74 | 1013.7 |
| 20260502210648 | 61 | 169 | 1.0 | 4.0 | 0.00 | 0.00 | 0.00 | 70 | 1013.9 |
| 20260502205540 | 61 | 173 | 1.0 | 4.0 | 0.00 | 0.00 | 0.00 | 69 | 1013.9 |
| 20260502205534 | 61 | 168 | 2.0 | 4.0 | 0.00 | 0.00 | 0.00 | 71 | 1013.9 |
| 20260502205032 | 61 | 146 | 1.0 | 4.0 | 0.00 | 0.00 | 0.00 | 71 | 1013.9 |
| 20260502204645 | 61 | 76 | 1.0 | 4.0 | 0.00 | 0.00 | 0.00 | 70 | 1014.0 |
| 20260502203532 | 60 | 346 | 1.0 | 5.0 | 0.00 | 0.00 | 0.00 | 70 | 1014.1 |
| 20260502203032 | 60 | 355 | 2.0 | 5.0 | 0.00 | 0.00 | 0.00 | 70 | 1014.1 |
| 20260502202539 | 60 | 298 | 2.0 | 5.0 | 0.00 | 0.00 | 0.00 | 72 | 1014.5 |
| 20260502202532 | 61 | 83 | 2.0 | 5.0 | 0.00 | 0.00 | 0.00 | 69 | 1014.2 |
| 20260502202032 | 61 | 250 | 2.0 | 7.0 | 0.00 | 0.00 | 0.00 | 68 | 1014.3 |
| 20260502201532 | 61 | 284 | 2.0 | 7.0 | 0.00 | 0.00 | 0.00 | 70 | 1014.5 |
| 20260502200537 | 60 | 280 | 1.0 | 3.0 | 0.00 | 0.00 | 0.00 | 74 | 1014.8 |
| 20260502200532 | 60 | 284 | 2.0 | 5.0 | 0.00 | 0.00 | 0.00 | 74 | 1014.6 |
| 20260502195530 | 59 | 355 | 2.0 | 4.0 | 0.00 | 0.00 | 0.00 | 74 | 1014.9 |
| 20260502195034 | 58 | 5 | 2.0 | 4.0 | 0.00 | 0.00 | 0.00 | 75 | 1015.0 |
| 20260502195028 | 58 | 22 | 2.0 | 4.0 | 0.00 | 0.00 | 0.00 | 73 | 1015.2 |
| 20260502194027 | 58 | 0 | 2.0 | 5.0 | 0.00 | 0.00 | 0.00 | 75 | 1015.2 |
| 20260502193528 | 58 | 19 | 2.0 | 7.0 | 0.00 | 0.00 | 0.00 | 74 | 1015.3 |
| 20260502193027 | 58 | 0 | 1.0 | 7.0 | 0.00 | 0.00 | 0.00 | 72 | 1015.3 |
| 20260502192534 | 57 | 237 | 1.0 | 3.0 | 0.00 | 0.00 | 0.00 | 74 | 1015.3 |
| 20260502192029 | 57 | 292 | 1.0 | 4.0 | 0.00 | 0.00 | 0.00 | 76 | 1015.5 |
| 20260502191526 | 57 | 196 | 2.0 | 4.0 | 0.00 | 0.00 | 0.00 | 75 | 1015.4 |
| 20260502191027 | 57 | 246 | 1.0 | 4.0 | 0.00 | 0.00 | 0.00 | 77 | 1015.7 |
| 20260502190526 | 56 | 317 | 1.0 | 3.0 | 0.00 | 0.00 | 0.00 | 78 | 1015.6 |
| 20260502190025 | 55 | 96 | 1.0 | 2.0 | 0.00 | 0.00 | 0.00 | 78 | 1015.6 |
| 20260502185527 | 55 | 182 | 1.0 | 2.0 | 0.00 | 0.00 | 0.00 | 77 | 1015.7 |
| 20260502185025 | 55 | 182 | 1.0 | 3.0 | 0.00 | 0.00 | 0.00 | 77 | 1015.6 |
| 20260502184526 | 55 | 201 | 1.0 | 4.0 | 0.00 | 0.00 | 0.00 | 78 | 1015.6 |
| 20260502184027 | 55 | 201 | 2.0 | 4.0 | 0.00 | 0.00 | 0.00 | 77 | 1015.6 |
| 20260502183526 | 55 | 207 | 1.0 | 3.0 | 0.00 | 0.00 | 0.00 | 78 | 1015.5 |
| 20260502183027 | 55 | 182 | 1.0 | 2.0 | 0.00 | 0.00 | 0.00 | 78 | 1015.5 |
| 20260502182526 | 55 | 175 | 1.0 | 2.0 | 0.00 | 0.00 | 0.00 | 80 | 1015.5 |
| 20260502182030 | 55 | 167 | 1.0 | 4.0 | 0.00 | 0.00 | 0.00 | 79 | 1015.6 |
| 20260502182025 | 55 | 175 | 1.0 | 4.0 | 0.00 | 0.00 | 0.00 | 80 | 1015.6 |
| 20260502181033 | 55 | 164 | 1.0 | 4.0 | 0.00 | 0.00 | 0.00 | 79 | 1015.7 |
| 20260502181026 | 55 | 157 | 1.0 | 4.0 | 0.00 | 0.00 | 0.00 | 79 | 1015.6 |
| 20260502180525 | 55 | 152 | 1.0 | 4.0 | 0.00 | 0.00 | 0.00 | 80 | 1015.7 |
| 20260502163524 | 53 | 246 | 1.0 | 2.0 | 0.00 | 0.00 | 0.00 | 78 | 1016.1 |
| 20260502163020 | 53 | 284 | 1.0 | 4.0 | 0.00 | 0.00 | 0.00 | 78 | 1016.1 |
| 20260502162520 | 53 | 321 | 1.0 | 4.0 | 0.00 | 0.00 | 0.00 | 78 | 1016.1 |
| 20260502162021 | 53 | 252 | 1.0 | 3.0 | 0.00 | 0.00 | 0.00 | 84 | 1016.1 |
| 20260502161633 | 52 | 267 | 2.0 | 5.0 | 0.00 | 0.00 | 0.00 | 83 | 1016.3 |
| 20260502161525 | 53 | 270 | 2.0 | 4.0 | 0.00 | 0.00 | 0.00 | 83 | 1016.3 |
| 20260502161521 | 53 | 242 | 2.0 | 4.0 | 0.00 | 0.00 | 0.00 | 81 | 1016.2 |
| 20260502152017 | 49 | 299 | 2.0 | 4.0 | 0.00 | 0.00 | 0.00 | 86 | 1016.3 |
| 20260502151515 | 49 | 263 | 1.0 | 4.0 | 0.00 | 0.00 | 0.00 | 86 | 1016.2 |
| 20260502151023 | 48 | 271 | 1.0 | 4.0 | 0.00 | 0.00 | 0.00 | 87 | 1016.2 |
| 20260502151015 | 49 | 250 | 1.0 | 4.0 | 0.00 | 0.00 | 0.00 | 86 | 1016.2 |
| 20260502150515 | 49 | 296 | 1.0 | 4.0 | 0.00 | 0.00 | 0.00 | 87 | 1016.2 |
| 20260502130511 | 47 | 221 | 1.0 | 5.0 | 0.00 | 0.00 | 0.00 | 88 | 1016.6 |
| 20260502123509 | 47 | 225 | 1.0 | 3.0 | 0.00 | 0.00 | 0.00 | 88 | 1016.4 |
| 20260502123122 | 47 | 218 | 0.0 | 5.0 | 0.00 | 0.00 | 0.00 | 87 | 1016.3 |
| 20260502122622 | 47 | 217 | 1.0 | 5.0 | 0.00 | 0.00 | 0.00 | 87 | 1016.3 |
| 20260502122009 | 47 | 219 | 1.0 | 5.0 | 0.00 | 0.00 | 0.00 | 87 | 1016.2 |
| 20260502121623 | 47 | 236 | 1.0 | 6.0 | 0.00 | 0.00 | 0.00 | 87 | 1016.2 |
| 20260502120510 | 48 | 291 | 1.0 | 6.0 | 0.00 | 0.00 | 0.00 | 87 | 1016.2 |
| 20260502115514 | 48 | 216 | 1.0 | 6.0 | 0.00 | 0.00 | 0.00 | 87 | 1016.2 |
| 20260502115510 | 48 | 250 | 2.0 | 5.0 | 0.00 | 0.00 | 0.00 | 87 | 1016.4 |
| 20260502114507 | 48 | 202 | 2.0 | 6.0 | 0.00 | 0.00 | 0.00 | 87 | 1016.2 |
| 20260502114007 | 48 | 231 | 2.0 | 5.0 | 0.00 | 0.00 | 0.00 | 87 | 1016.3 |
| 20260502113507 | 48 | 240 | 2.0 | 8.0 | 0.00 | 0.00 | 0.00 | 87 | 1016.3 |
| 20260502113010 | 48 | 256 | 2.0 | 7.0 | 0.00 | 0.00 | 0.00 | 87 | 1016.3 |
| 20260502113006 | 48 | 220 | 2.0 | 8.0 | 0.00 | 0.00 | 0.00 | 87 | 1016.2 |
| 20260502112007 | 48 | 231 | 1.0 | 7.0 | 0.00 | 0.00 | 0.00 | 87 | 1016.2 |
| 20260502111506 | 48 | 258 | 1.0 | 6.0 | 0.00 | 0.00 | 0.00 | 88 | 1016.2 |
| 20260502111007 | 47 | 253 | 2.0 | 7.0 | 0.00 | 0.00 | 0.00 | 87 | 1016.2 |
| 20260502110507 | 47 | 235 | 2.0 | 7.0 | 0.00 | 0.00 | 0.00 | 87 | 1016.1 |
| 20260502110019 | 48 | 238 | 2.0 | 7.0 | 0.00 | 0.00 | 0.00 | 87 | 1016.0 |
| 20260502110008 | 47 | 258 | 2.0 | 7.0 | 0.00 | 0.00 | 0.00 | 87 | 1016.0 |
| 20260502105007 | 48 | 267 | 2.0 | 6.0 | 0.00 | 0.00 | 0.00 | 87 | 1015.9 |
| 20260502104522 | 48 | 259 | 2.0 | 6.0 | 0.00 | 0.00 | 0.00 | 87 | 1015.8 |
| 20260502104007 | 48 | 226 | 2.0 | 6.0 | 0.00 | 0.00 | 0.00 | 87 | 1016.1 |
| 20260502103508 | 48 | 243 | 2.0 | 9.0 | 0.00 | 0.00 | 0.00 | 87 | 1016.0 |
| 20260502103007 | 48 | 221 | 2.0 | 9.0 | 0.00 | 0.00 | 0.00 | 87 | 1016.0 |
| 20260502102512 | 48 | 254 | 3.0 | 8.0 | 0.00 | 0.00 | 0.00 | 87 | 1016.1 |
| 20260502102507 | 48 | 261 | 3.0 | 8.0 | 0.00 | 0.00 | 0.00 | 87 | 1016.0 |
| 20260502101506 | 49 | 291 | 2.0 | 8.0 | 0.00 | 0.00 | 0.00 | 87 | 1016.0 |
| 20260502101006 | 49 | 259 | 3.0 | 8.0 | 0.00 | 0.00 | 0.00 | 87 | 1016.1 |
| 20260502100508 | 49 | 298 | 2.0 | 8.0 | 0.00 | 0.00 | 0.00 | 86 | 1016.0 |
| 20260502091503 | 49 | 264 | 2.0 | 7.0 | 0.00 | 0.00 | 0.00 | 86 | 1016.7 |
| 20260502091004 | 49 | 252 | 2.0 | 9.0 | 0.00 | 0.00 | 0.00 | 86 | 1016.8 |
| 20260502090502 | 49 | 238 | 2.0 | 9.0 | 0.00 | 0.00 | 0.00 | 86 | 1016.9 |
| 20260502071001 | 50 | 231 | 2.0 | 7.0 | 0.00 | 0.00 | 0.00 | 85 | 1017.2 |
| 20260502070502 | 50 | 250 | 3.0 | 9.0 | 0.00 | 0.00 | 0.00 | 84 | 1017.3 |
| 20260502070000 | 50 | 317 | 3.0 | 9.0 | 0.00 | 0.00 | 0.00 | 84 | 1017.2 |
| 20260502065459 | 50 | 253 | 3.0 | 8.0 | 0.00 | 0.00 | 0.00 | 84 | 1017.3 |
| 20260502064959 | 50 | 264 | 3.0 | 8.0 | 0.00 | 0.00 | 0.00 | 84 | 1017.3 |
| 20260502064459 | 50 | 217 | 3.0 | 10.0 | 0.00 | 0.00 | 0.00 | 84 | 1017.3 |
| 20260502063958 | 50 | 304 | 3.0 | 10.0 | 0.00 | 0.00 | 0.00 | 85 | 1017.3 |
| 20260502063457 | 50 | 253 | 3.0 | 9.0 | 0.00 | 0.00 | 0.00 | 85 | 1017.3 |
| 20260502062958 | 50 | 265 | 3.0 | 8.0 | 0.00 | 0.00 | 0.00 | 85 | 1017.4 |
| 20260502062456 | 50 | 229 | 3.0 | 10.0 | 0.00 | 0.00 | 0.00 | 85 | 1017.3 |
| 20260502061958 | 50 | 284 | 4.0 | 10.0 | 0.00 | 0.00 | 0.00 | 84 | 1017.3 |
| 20260502061458 | 50 | 243 | 5.0 | 13.0 | 0.00 | 0.00 | 0.00 | 84 | 1017.4 |
| 20260502060956 | 50 | 223 | 4.0 | 13.0 | 0.00 | 0.00 | 0.00 | 85 | 1017.3 |
| 20260502060456 | 50 | 252 | 3.0 | 8.0 | 0.00 | 0.00 | 0.00 | 85 | 1017.3 |
| 20260502055955 | 51 | 232 | 3.0 | 9.0 | 0.00 | 0.00 | 0.00 | 84 | 1017.2 |
| 20260502055456 | 51 | 277 | 3.0 | 9.0 | 0.00 | 0.00 | 0.00 | 84 | 1017.1 |
| 20260502054955 | 51 | 242 | 4.0 | 10.0 | 0.00 | 0.00 | 0.00 | 84 | 1017.1 |
| 20260502054454 | 51 | 302 | 4.0 | 11.0 | 0.00 | 0.00 | 0.00 | 84 | 1017.1 |
| 20260502053958 | 51 | 286 | 3.0 | 10.0 | 0.00 | 0.00 | 0.00 | 84 | 1017.2 |
| 20260502053954 | 51 | 235 | 3.0 | 11.0 | 0.00 | 0.00 | 0.00 | 84 | 1017.1 |
| 20260502052956 | 51 | 257 | 3.0 | 12.0 | 0.00 | 0.00 | 0.00 | 85 | 1017.1 |
| 20260502052952 | 51 | 205 | 4.0 | 12.0 | 0.00 | 0.00 | 0.00 | 84 | 1017.2 |
| 20260502051957 | 51 | 217 | 4.0 | 13.0 | 0.00 | 0.00 | 0.00 | 85 | 1017.1 |
| 20260502051951 | 51 | 238 | 3.0 | 11.0 | 0.00 | 0.00 | 0.00 | 85 | 1017.1 |
| 20260502051450 | 51 | 288 | 4.0 | 13.0 | 0.00 | 0.00 | 0.00 | 85 | 1017.2 |
| 20260502050451 | 51 | 251 | 4.0 | 9.0 | 0.00 | 0.00 | 0.00 | 85 | 1017.0 |
| 20260502045955 | 51 | 335 | 3.0 | 9.0 | 0.00 | 0.00 | 0.00 | 85 | 1017.0 |
| 20260502045949 | 51 | 290 | 4.0 | 9.0 | 0.00 | 0.00 | 0.00 | 84 | 1017.0 |
| 20260502044948 | 51 | 228 | 4.0 | 12.0 | 0.00 | 0.00 | 0.00 | 84 | 1016.9 |
| 20260502044449 | 51 | 250 | 4.0 | 13.0 | 0.00 | 0.00 | 0.00 | 84 | 1016.9 |
| 20260502043948 | 51 | 303 | 5.0 | 13.0 | 0.00 | 0.00 | 0.00 | 84 | 1016.9 |
| 20260502043449 | 51 | 288 | 4.0 | 12.0 | 0.00 | 0.00 | 0.00 | 84 | 1016.8 |
| 20260502042949 | 51 | 232 | 4.0 | 12.0 | 0.00 | 0.00 | 0.00 | 84 | 1016.8 |
| 20260502042446 | 51 | 246 | 4.0 | 10.0 | 0.00 | 0.00 | 0.00 | 84 | 1016.8 |
| 20260502041947 | 51 | 193 | 4.0 | 12.0 | 0.00 | 0.00 | 0.00 | 84 | 1016.8 |
| 20260502041448 | 51 | 270 | 4.0 | 12.0 | 0.00 | 0.00 | 0.00 | 84 | 1016.7 |
| 20260502040946 | 51 | 252 | 4.0 | 10.0 | 0.00 | 0.00 | 0.00 | 84 | 1016.6 |
| 20260502040452 | 51 | 246 | 5.0 | 14.0 | 0.00 | 0.00 | 0.00 | 84 | 1016.4 |
| 20260502040448 | 51 | 232 | 5.0 | 14.0 | 0.00 | 0.00 | 0.00 | 84 | 1016.7 |
| 20260502035447 | 52 | 238 | 5.0 | 14.0 | 0.00 | 0.00 | 0.00 | 84 | 1016.4 |
| 20260502034946 | 52 | 270 | 4.0 | 14.0 | 0.00 | 0.00 | 0.00 | 83 | 1016.4 |
| 20260502034447 | 52 | 179 | 4.0 | 14.0 | 0.00 | 0.00 | 0.00 | 83 | 1016.3 |
| 20260502033948 | 52 | 236 | 4.0 | 14.0 | 0.00 | 0.00 | 0.00 | 83 | 1016.3 |
| 20260502033446 | 52 | 266 | 4.0 | 13.0 | 0.00 | 0.00 | 0.00 | 83 | 1016.3 |
| 20260502032946 | 52 | 257 | 4.0 | 20.0 | 0.00 | 0.00 | 0.00 | 83 | 1016.2 |
| 20260502032446 | 52 | 284 | 5.0 | 20.0 | 0.00 | 0.00 | 0.00 | 83 | 1016.3 |
| 20260502031946 | 52 | 254 | 5.0 | 14.0 | 0.00 | 0.00 | 0.00 | 83 | 1016.1 |
| 20260502031448 | 52 | 205 | 4.0 | 12.0 | 0.00 | 0.00 | 0.00 | 83 | 1016.1 |
| 20260502030946 | 52 | 269 | 3.0 | 12.0 | 0.00 | 0.00 | 0.00 | 83 | 1016.1 |
| 20260502030446 | 53 | 253 | 4.0 | 10.0 | 0.00 | 0.00 | 0.00 | 82 | 1016.0 |
| 20260502025947 | 53 | 209 | 4.0 | 14.0 | 0.00 | 0.00 | 0.00 | 82 | 1016.0 |
| 20260502025446 | 53 | 218 | 5.0 | 14.0 | 0.00 | 0.00 | 0.00 | 82 | 1015.9 |
| 20260502024953 | 53 | 194 | 4.0 | 11.0 | 0.00 | 0.00 | 0.00 | 81 | 1015.8 |
| 20260502024948 | 53 | 234 | 5.0 | 14.0 | 0.00 | 0.00 | 0.00 | 82 | 1015.8 |
| 20260502024447 | 53 | 278 | 5.0 | 14.0 | 0.00 | 0.00 | 0.00 | 81 | 1015.8 |
| 20260502024100 | 53 | 232 | 4.0 | 12.0 | 0.00 | 0.00 | 0.00 | 81 | 1015.7 |
| 20260502022945 | 54 | 199 | 5.0 | 13.0 | 0.00 | 0.00 | 0.00 | 80 | 1015.7 |
| 20260502022447 | 54 | 253 | 5.0 | 14.0 | 0.00 | 0.00 | 0.00 | 80 | 1015.5 |
| 20260502021944 | 54 | 245 | 5.0 | 14.0 | 0.00 | 0.00 | 0.00 | 80 | 1015.6 |
| 20260502021449 | 55 | 247 | 5.0 | 13.0 | 0.00 | 0.00 | 0.00 | 79 | 1015.5 |
| 20260502021444 | 54 | 227 | 5.0 | 13.0 | 0.00 | 0.00 | 0.00 | 79 | 1015.6 |
| 20260502021058 | 55 | 214 | 5.0 | 13.0 | 0.00 | 0.00 | 0.00 | 78 | 1015.5 |
| 20260502015945 | 55 | 277 | 5.0 | 13.0 | 0.00 | 0.00 | 0.00 | 78 | 1015.6 |
| 20260502015445 | 55 | 281 | 4.0 | 12.0 | 0.00 | 0.00 | 0.00 | 78 | 1015.7 |
| 20260502014944 | 56 | 244 | 4.0 | 12.0 | 0.00 | 0.00 | 0.00 | 77 | 1015.6 |
| 20260502014442 | 56 | 233 | 5.0 | 19.0 | 0.00 | 0.00 | 0.00 | 77 | 1015.6 |
| 20260502013940 | 56 | 281 | 5.0 | 19.0 | 0.00 | 0.00 | 0.00 | 76 | 1015.5 |
| 20260502013440 | 56 | 257 | 5.0 | 19.0 | 0.00 | 0.00 | 0.00 | 75 | 1015.5 |
| 20260502012941 | 56 | 243 | 6.0 | 19.0 | 0.00 | 0.00 | 0.00 | 75 | 1015.4 |
| 20260502012441 | 57 | 277 | 7.0 | 20.0 | 0.00 | 0.00 | 0.00 | 75 | 1015.5 |
| 20260502011941 | 57 | 213 | 7.0 | 20.0 | 0.00 | 0.00 | 0.00 | 73 | 1015.5 |
| 20260502011441 | 58 | 239 | 6.0 | 16.0 | 0.00 | 0.00 | 0.00 | 73 | 1015.4 |
| 20260502010940 | 58 | 235 | 6.0 | 16.0 | 0.00 | 0.00 | 0.00 | 72 | 1015.5 |
| 20260502010440 | 58 | 198 | 5.0 | 17.0 | 0.00 | 0.00 | 0.00 | 73 | 1015.4 |
| 20260502005940 | 58 | 288 | 5.0 | 17.0 | 0.00 | 0.00 | 0.00 | 73 | 1015.4 |
| 20260502005441 | 58 | 234 | 7.0 | 17.0 | 0.00 | 0.00 | 0.00 | 73 | 1015.4 |
| 20260502004940 | 58 | 231 | 8.0 | 17.0 | 0.00 | 0.00 | 0.00 | 72 | 1015.4 |
| 20260502004446 | 59 | 212 | 6.0 | 16.0 | 0.00 | 0.00 | 0.00 | 71 | 1015.3 |
| 20260502004441 | 59 | 215 | 7.0 | 16.0 | 0.00 | 0.00 | 0.00 | 72 | 1015.4 |
| 20260502003439 | 60 | 216 | 6.0 | 16.0 | 0.00 | 0.00 | 0.00 | 71 | 1015.3 |
| 20260502002940 | 60 | 215 | 7.0 | 16.0 | 0.00 | 0.00 | 0.00 | 70 | 1015.3 |
| 20260502002445 | 60 | 238 | 4.0 | 12.0 | 0.00 | 0.00 | 0.00 | 71 | 1015.3 |
| 20260502002439 | 60 | 194 | 5.0 | 15.0 | 0.00 | 0.00 | 0.00 | 70 | 1015.3 |
| 20260502001938 | 60 | 278 | 4.0 | 12.0 | 0.00 | 0.00 | 0.00 | 71 | 1015.3 |
| 20260502000937 | 61 | 219 | 5.0 | 13.0 | 0.00 | 0.00 | 0.00 | 70 | 1015.2 |
| 20260502000439 | 61 | 261 | 5.0 | 13.0 | 0.00 | 0.00 | 0.00 | 69 | 1015.1 |
| 20260501235936 | 62 | 237 | 5.0 | 13.0 | 0.00 | 0.00 | 0.00 | 68 | 1015.1 |
| 20260501235436 | 62 | 263 | 5.0 | 13.0 | 0.00 | 0.00 | 0.00 | 69 | 1015.1 |
| 20260501234936 | 62 | 250 | 5.0 | 14.0 | 0.00 | 0.00 | 0.00 | 68 | 1015.2 |
| 20260501234436 | 62 | 254 | 7.0 | 15.0 | 0.00 | 0.00 | 0.00 | 67 | 1015.2 |
| 20260501233936 | 62 | 247 | 6.0 | 15.0 | 0.00 | 0.00 | 0.00 | 68 | 1015.2 |
| 20260501233437 | 62 | 248 | 6.0 | 16.0 | 0.00 | 0.00 | 0.00 | 67 | 1015.2 |
| 20260501232937 | 62 | 232 | 7.0 | 16.0 | 0.00 | 0.00 | 0.00 | 69 | 1015.2 |
| 20260501232441 | 63 | 206 | 6.0 | 16.0 | 0.00 | 0.00 | 0.00 | 67 | 1015.3 |
| 20260501232436 | 62 | 193 | 7.0 | 16.0 | 0.00 | 0.00 | 0.00 | 67 | 1015.2 |
| 20260501232049 | 63 | 205 | 6.0 | 15.0 | 0.00 | 0.00 | 0.00 | 67 | 1015.3 |
| 20260501230939 | 63 | 273 | 7.0 | 15.0 | 0.00 | 0.00 | 0.00 | 67 | 1015.4 |
| 20260501230934 | 62 | 239 | 8.0 | 15.0 | 0.00 | 0.00 | 0.00 | 67 | 1015.3 |
| 20260501225934 | 64 | 251 | 6.0 | 15.0 | 0.00 | 0.00 | 0.00 | 66 | 1015.4 |
| 20260501225435 | 64 | 156 | 6.0 | 15.0 | 0.00 | 0.00 | 0.00 | 67 | 1015.5 |
| 20260501224933 | 64 | 265 | 6.0 | 16.0 | 0.00 | 0.00 | 0.00 | 65 | 1015.5 |
| 20260501224434 | 64 | 223 | 7.0 | 17.0 | 0.00 | 0.00 | 0.00 | 65 | 1015.4 |